Location: Zlin
(49.2330°N, 17.6670°E)
Time: 23:41:30
(UTC+02:00)

ISS - Visible Passes

Search period start: 22 July 2014 00:00
Search period end: 01 August 2014 00:00
Orbit: 413 x 420 km, 51.6° (Epoch: 22 July)

Date Brightness Start Highest point End Pass type
(mag) Time Alt. Az. Time Alt. Az. Time Alt. Az.
22 Jul -2.0 02:51:01 25° SSE 02:51:24 26° SE 02:54:15 10° E visible
22 Jul -3.2 04:24:31 10° WSW 04:27:53 83° NNW 04:31:16 10° ENE visible
23 Jul -1.0 02:04:12 15° ESE 02:04:12 15° ESE 02:05:21 10° E visible
23 Jul -3.3 03:37:05 19° WSW 03:39:23 74° SSE 03:42:45 10° ENE visible
24 Jul -3.0 02:50:15 43° SSW 02:50:55 52° SSE 02:54:13 10° ENE visible
24 Jul -2.7 04:24:21 10° W 04:27:41 59° N 04:31:01 10° ENE visible
25 Jul -2.0 02:03:23 30° ESE 02:03:23 30° ESE 02:05:37 10° E visible
25 Jul -3.0 03:36:15 14° W 03:39:07 69° NNW 03:42:29 10° ENE visible
26 Jul -0.6 01:16:29 12° E 01:16:29 12° E 01:16:54 10° E visible
26 Jul -3.3 02:49:22 37° WSW 02:50:35 86° NNW 02:53:58 10° ENE visible
26 Jul -2.5 04:24:12 10° WNW 04:27:31 54° N 04:30:50 10° E visible
27 Jul -3.1 02:02:28 62° ESE 02:02:28 62° ESE 02:05:26 10° ENE visible
27 Jul -2.6 03:35:36 10° W 03:38:55 55° N 03:42:15 10° ENE visible
28 Jul -1.3 01:15:33 21° E 01:15:33 21° E 01:16:52 10° ENE visible
28 Jul -2.8 02:48:25 23° W 02:50:20 60° N 02:53:41 10° ENE visible
28 Jul -2.8 04:23:58 10° WNW 04:27:19 64° N 04:30:40 10° E visible
29 Jul -3.1 02:01:30 67° NW 02:01:46 72° NNW 02:05:08 10° ENE visible
29 Jul -2.6 03:35:25 10° WNW 03:38:45 56° N 03:42:04 10° E visible
30 Jul -1.9 01:14:36 33° ENE 01:14:36 33° ENE 01:16:36 10° ENE visible
30 Jul -2.5 02:47:29 15° WNW 02:50:09 54° N 02:53:28 10° E visible
30 Jul -3.3 04:23:41 10° WNW 04:27:03 86° SSW 04:30:26 10° ESE visible
31 Jul -0.6 00:27:44 12° ENE 00:27:44 12° ENE 00:28:03 10° ENE visible
31 Jul -2.6 02:00:37 39° WNW 02:01:33 56° N 02:04:52 10° ENE visible
31 Jul -3.1 03:35:08 10° WNW 03:38:31 74° NNE 03:41:53 10° ESE visible
